#timestamp,LO_Frequency,Hit,StdDev 
1546102815.6,286047001.6,N
1546102835.5,286047002.0,N
1546102855.3,286047000.1,N
1546102875.1,286047002.5,N
1546102895.9,286047002.6,N
1546102915.7,286046999.8,N
1546102935.5,286046999.9,N
1546102955.4,286046998.2,N
1546102975.2,286046998.8,N
1546102995.1,286046998.5,N
1546102996.0,286046998.5,N
1546103015.8,286047000.4,N
1546103035.6,286047000.4,N
1546103055.5,286047002.3,N
1546103075.3,286047000.1,N
1546103095.2,286047000.0,N
1546103115.9,286047000.3,N
1546103135.7,286046999.9,N
1546103155.6,286047002.8,N
1546103175.4,286047000.4,N
1546103195.2,286047000.6,N
1546103215.1,286046998.5,N
1546103216.0,286046998.5,N
1546103235.8,286046998.8,N
1546103255.7,286046998.5,N
1546103275.5,286046998.6,N
1546103295.3,286047000.9,N
1546103315.2,286046999.9,N
1546103335.0,286047000.3,N
1546103335.9,286047000.3,N
1546103355.7,286046999.8,N
1546103375.6,286046999.9,N
1546103395.4,286047000.6,N
1546103415.3,286046999.8,N
1546103435.1,286047001.8,N
1546103436.0,286047001.8,N
1546103455.9,286047003.7,Y
1546103475.7,286047001.6,P
1546103495.5,286047002.1,N
1546103515.4,286047002.6,N
1546103535.2,286047002.6,N
1546103555.0,286047001.7,N
1546103555.9,286047001.7,N
1546103575.8,286047002.3,N
1546103595.6,286047003.9,Y
1546103615.5,286047000.8,P
1546103635.3,286047000.8,N
1546103655.1,286046998.6,N
1546103675.9,286046999.4,N
1546103695.7,286046999.2,N
1546103715.6,286046998.2,N
1546103735.4,286046999.1,N
1546103755.2,286046999.0,N
1546103775.1,286046998.6,N
1546103776.0,286046998.6,N
1546103795.8,286047001.1,N
1546103815.6,286046998.3,N
1546103835.5,286046999.3,N
1546103855.3,286047001.1,N
1546103875.2,286046999.9,N
1546103895.9,286047001.1,N
1546103915.7,286046996.6,Y
1546103935.6,286046998.5,P
1546103955.4,286047001.0,N
1546103975.2,286047000.3,N
1546103995.1,286047002.4,N
1546103996.0,286047002.4,N
1546104015.8,286047003.6,N
1546104035.7,286047002.1,N
1546104055.5,286046999.8,N
1546104075.3,286047000.0,N
1546104095.2,286047000.0,N
1546104115.0,286047000.1,N
1546104115.9,286047000.1,N
1546104135.8,286046999.9,N
1546104155.6,286047000.0,N
1546104175.4,286047000.7,N
1546104195.3,286046999.8,N
1546104215.1,286046999.9,N
1546104235.8,286046999.9,N
1546104255.7,286047002.2,N
1546104275.5,286047002.4,N
1546104295.4,286047002.1,N
1546104315.2,286047001.9,N
1546104335.0,286047001.8,N
1546104335.9,286047001.8,N
1546104355.8,286047001.9,N
1546104375.6,286047002.1,N
1546104395.5,286047001.6,N
1546104415.3,286047004.0,Y
1546104435.1,286046999.9,P
1546104455.9,286047001.1,N
1546104475.7,286047000.8,N
1546104495.5,286046998.9,N
1546104515.4,286046996.7,Y
1546104535.2,286046997.7,P
1546104555.1,286046999.5,N
1546104556.0,286046999.5,N
1546104575.8,286046997.1,Y
1546104595.6,286046999.5,P
1546104615.5,286046999.0,P
1546104635.3,286046998.6,P
1546104655.2,286046999.2,N
1546104675.9,286046998.6,Y
1546104695.8,286047000.9,P
1546104715.6,286047000.6,N
1546104735.4,286046999.9,N
1546104755.3,286047002.8,Y
1546104775.1,286047002.4,P
1546104795.9,286047001.5,N
1546104815.7,286046999.7,N
1546104835.5,286047002.4,N
1546104855.4,286047001.0,N
1546104875.2,286047000.8,N
1546104895.0,286046998.1,N
1546104895.9,286046998.1,N
1546104915.8,286047000.8,N
1546104935.6,286047000.3,N
1546104955.5,286046999.7,N
1546104975.3,286047002.8,N
1546104995.1,286047002.3,N
1546105015.9,286047001.9,N
1546105035.7,286047001.7,N
1546105055.6,286047001.9,N
1546105075.4,286047002.5,N
1546105095.2,286047002.7,N
1546105115.1,286047002.1,N
1546105116.0,286047002.1,N
1546105135.8,286047002.5,N
1546105155.7,286047002.2,N
1546105175.5,286047000.2,N
1546105195.3,286047000.5,N
1546105215.2,286047000.9,N
1546105235.0,286046999.2,N
1546105235.9,286046999.2,N
1546105255.7,286046999.2,N
1546105275.6,286046998.8,N
1546105295.4,286046999.1,N
1546105315.3,286046998.7,N
1546105335.1,286047001.0,N
1546105336.0,286047001.0,N
1546105355.8,286046999.3,N
1546105375.7,286046996.9,N
1546105395.5,286046999.1,N
1546105415.3,286046998.7,N
1546105435.2,286046998.7,N
1546105455.0,286046998.7,N
1546105455.9,286046998.7,N
1546105475.8,286046996.8,N
1546105495.6,286046996.6,N
1546105515.4,286046996.6,N
1546105535.3,286046997.4,N
1546105555.1,286046997.2,N
1546105575.8,286046998.0,N
1546105595.7,286046993.3,Y
1546105615.5,286046997.3,P
1546105635.1,286046996.9,N
1546105636.0,286046996.9,N
1546105655.8,286046999.6,N
1546105675.7,286046996.8,N
1546105695.5,286046997.7,N
1546105715.3,286046997.7,N
1546105735.2,286046997.0,N
1546105755.0,286046996.9,Y
1546105755.9,286046996.9,P
1546105775.8,286047000.8,N
1546105795.6,286046999.2,N
1546105815.4,286046998.5,N
1546105835.3,286046998.2,N
1546105855.1,286047000.6,N
1546105875.8,286047000.5,N
1546105895.7,286047002.7,N
1546105915.5,286047000.7,N
1546105935.4,286047000.8,N
1546105955.2,286047000.7,N
1546105975.0,286046999.9,N
1546105975.9,286046999.9,N
1546105995.8,286046999.8,N
1546106015.6,286047000.5,N
1546106035.5,286046999.0,N
1546106055.3,286046999.1,N
1546106075.1,286046998.7,N
1546106095.9,286047000.8,N
1546106115.7,286046998.8,N
1546106135.6,286046996.7,N
1546106155.4,286046999.6,N
1546106175.2,286046997.3,N
1546106195.1,286046995.0,Y
1546106196.0,286046995.0,P
1546106215.8,286046998.9,N
1546106235.8,286046997.0,N
1546106255.6,286046996.8,N
1546106275.4,286046997.4,N
1546106295.3,286046996.9,N
1546106315.1,286046999.4,N
1546106335.9,286046998.6,N
1546106355.7,286046998.5,N
1546106375.5,286046999.5,N
1546106395.4,286046996.7,N
